Wind_Speed
62 62 65 65 64 65 65 65 66 65 65 64 63 63 61 61 59 62 61 56 58 57 55 58 61 63 63 62 66 69 70 72 73 73 72 71 71 71 70 68 67 66 65 64 63 63 63 61 61 60 61 62 64 65 65 66 66 67 68 68 70 73 74 75 77 79 83 86 89 92 95 97 99 100 101 102 104 106 109 110 111 111 110 110 110 110
62 64 66 66 66 68 68 68 68 68 67 65 65 64 63 63 61 60 60 57 59 59 57 59 61 64 65 64 66 69 70 73 75 77 77 76 76 76 74 72 70 69 69 68 67 66 66 65 64 63 63 64 65 66 66 67 68 69 69 70 70 72 74 75 77 79 81 82 85 88 92 96 99 100 100 100 102 104 107 110 111 112 113 113 113 113
63 65 66 67 68 70 70 71 71 70 68 67 67 66 64 64 61 59 58 58 60 61 61 62 62 65 67 66 68 70 72 74 76 78 79 80 80 80 79 78 75 73 72 72 71 70 70 69 68 67 66 66 67 67 67 68 69 70 71 72 72 73 75 76 77 80 81 81 82 85 88 92 95 96 98 100 102 104 105 107 109 112 115 116 116 117
65 66 67 69 71 72 72 73 73 72 70 69 69 68 66 64 62 60 58 59 61 62 65 66 66 68 69 67 69 72 74 76 77 79 81 82 82 82 83 83 82 79 77 76 75 75 74 73 72 71 69 69 69 69 69 69 70 71 72 74 75 75 76 78 78 80 81 81 82 84 86 87 89 92 95 98 101 103 104 106 107 109 113 116 118 119
67 68 69 71 72 73 74 74 74 74 72 71 70 69 67 65 64 63 63 62 63 64 67 68 70 73 72 71 72 74 75 76 78 80 82 83 83 84 85 85 85 84 83 82 80 79 78 78 76 75 73 72 72 72 72 72 72 72 73 75 76 77 77 79 80 81 81 82 83 84 85 85 86 88 91 94 97 101 104 106 108 109 112 114 116 116
69 71 72 73 74 75 76 75 76 75 73 71 70 69 68 67 67 68 68 68 67 68 69 69 73 77 76 75 75 77 77 78 79 80 82 84 85 86 86 86 86 86 87 87 86 84 82 81 81 80 79 77 76 76 75 75 75 75 75 76 78 78 79 79 81 82 83 84 84 84 85 86 86 86 88 90 94 98 101 103 106 108 110 112 112 112
71 73 75 76 76 76 77 77 77 76 74 72 70 70 69 70 71 71 73 74 73 73 73 72 76 81 82 80 79 79 79 79 80 82 84 86 87 87 87 87 87 87 87 88 88 88 87 86 85 84 84 82 81 80 79 79 78 78 78 79 79 80 80 81 82 83 84 86 86 86 86 87 88 87 87 89 92 95 97 100 102 104 107 109 110 110
73 74 76 77 77 77 78 78 78 76 74 73 72 71 72 73 74 75 77 78 78 78 76 75 81 86 87 86 83 81 81 80 83 86 87 88 88 87 87 87 86 86 85 86 87 88 89 90 89 89 88 86 85 84 83 81 80 80 81 81 82 82 83 83 83 84 85 87 88 88 88 88 88 88 88 89 91 93 94 96 98 100 102 105 106 108
74 75 76 77 77 78 79 79 78 76 75 74 74 74 75 76 77 79 81 82 83 84 78 77 86 90 91 92 88 85 84 85 87 90 90 91 90 88 87 86 85 85 84 85 86 87 88 89 89 89 89 88 87 86 85 83 82 82 82 82 83 84 85 85 86 87 88 88 88 89 89 90 90 90 90 91 92 93 93 93 95 97 100 102 103 104
76 76 76 77 78 79 79 78 77 77 76 76 77 78 79 80 81 83 85 86 88 88 82 82 89 93 94 95 91 89 89 90 91 92 92 93 92 90 88 87 86 86 86 86 86 86 86 86 87 87 87 87 86 86 85 84 84 83 84 84 84 85 87 88 89 89 90 90 90 90 90 91 91 91 92 92 93 93 94 94 94 95 97 99 100 102
76 77 77 78 79 79 78 78 78 78 79 80 81 82 83 84 86 87 88 90 92 92 89 88 92 96 99 98 95 94 94 94 94 94 93 92 92 91 90 89 88 87 86 86 85 85 85 85 85 85 85 85 85 85 85 85 84 84 85 85 86 86 88 89 91 92 92 93 93 93 93 93 92 93 93 94 94 95 95 95 95 95 97 98 98 99
76 77 78 79 79 80 80 80 80 81 82 84 85 87 88 89 91 92 91 93 95 95 94 93 94 98 101 99 98 98 97 97 96 93 92 91 91 91 91 91 90 89 88 86 85 85 84 85 85 84 84 84 84 85 85 85 85 84 85 86 87 88 88 90 92 93 94 95 96 96 96 96 96 95 95 95 96 97 97 96 96 97 97 98 98 98
76 76 76 77 79 80 82 82 83 83 84 86 88 91 93 94 95 97 96 96 97 97 97 96 95 97 100 99 98 98 98 97 95 93 92 92 92 92 92 92 91 90 89 88 87 85 85 84 85 85 84 84 84 85 86 86 86 85 85 86 87 88 89 90 92 93 95 96 98 99 99 99 99 99 98 98 98 98 99 99 98 98 99 99 99 100
75 74 73 76 79 80 83 84 85 86 88 89 90 93 97 98 101 102 100 100 100 99 99 98 97 98 100 98 96 96 96 95 94 94 94 94 94 94 93 93 91 91 90 89 88 87 85 85 85 85 85 85 85 86 86 87 87 87 87 87 87 88 89 90 92 93 95 97 98 99 100 101 101 102 102 101 101 101 101 101 100 100 100 100 100 101
76 73 73 77 80 82 84 87 89 91 92 93 94 97 100 102 106 107 105 103 102 101 100 98 99 101 100 98 96 94 94 94 94 95 96 96 96 95 94 93 92 92 91 90 89 87 86 85 85 85 86 87 87 87 87 87 87 88 88 88 88 88 89 90 92 93 94 96 98 99 101 102 103 104 105 105 105 104 104 104 103 103 103 103 103 103
77 75 75 79 83 86 88 90 93 96 97 98 98 100 103 104 108 110 109 106 105 104 99 96 99 101 99 98 96 94 94 95 96 97 97 97 96 96 95 94 94 93 92 91 90 88 87 86 85 85 85 86 87 88 88 88 88 88 88 89 89 89 89 89 91 92 94 95 96 98 100 102 103 105 106 107 107 108 107 107 107 106 105 105 105 105
78 75 76 80 84 89 91 93 96 99 102 103 104 104 105 106 109 111 111 108 106 105 100 96 98 100 101 100 96 94 95 96 97 99 99 98 97 97 96 96 95 94 93 92 91 90 89 87 86 85 85 85 86 87 88 88 88 88 88 89 89 89 90 89 90 90 92 94 95 97 98 100 102 104 105 107 108 110 110 110 110 109 108 108 108 108
84 79 77 82 87 90 93 96 98 102 104 106 107 108 108 108 108 111 113 109 106 105 101 98 98 100 102 101 96 94 95 96 97 99 99 99 98 98 97 96 95 95 94 94 93 92 91 90 88 87 87 86 85 86 87 87 88 88 89 89 89 90 90 91 91 90 91 92 94 96 97 99 100 102 103 105 107 109 111 112 112 112 112 111 111 110
91 88 82 83 89 92 96 100 101 103 106 106 107 107 108 109 108 108 110 110 107 105 101 98 98 99 101 100 98 96 94 94 95 96 97 97 97 96 96 95 95 95 95 94 94 94 93 92 90 90 90 88 87 87 86 87 87 88 89 90 90 90 91 92 92 92 92 92 93 95 97 98 99 100 102 103 105 107 109 111 113 114 114 114 114 113
95 96 91 89 93 96 99 103 104 105 107 106 105 105 106 106 106 106 107 107 108 108 104 101 99 98 97 97 98 97 95 94 93 93 94 94 95 95 94 94 94 93 94 93 93 93 93 93 92 91 91 90 90 89 88 88 88 88 89 90 91 91 92 92 93 94 94 94 94 95 96 98 99 100 101 102 103 104 106 108 110 113 115 116 116 116
97 101 99 96 97 99 102 105 106 107 108 107 106 106 105 104 104 105 104 104 106 107 105 104 102 100 97 95 96 96 95 94 92 92 92 92 93 93 93 93 92 92 92 92 92 93 93 93 92 91 91 91 90 90 90 90 90 90 90 90 91 92 93 93 94 95 95 95 95 96 96 97 98 99 100 101 102 103 104 106 108 110 112 114 116 117
101 104 104 101 101 102 103 105 107 107 107 107 107 107 107 106 106 108 108 106 107 107 105 106 106 102 99 96 96 96 94 93 92 92 91 91 91 91 91 91 91 91 91 91 91 91 92 92 92 91 92 92 91 91 91 91 91 91 92 92 92 93 93 94 95 95 96 96 96 97 97 98 98 99 100 100 102 103 104 104 106 107 109 112 114 116
105 107 107 105 103 102 102 103 104 105 105 105 106 107 107 105 105 108 110 108 107 106 104 105 106 104 101 98 96 95 94 92 91 91 90 90 90 90 89 89 89 89 89 89 90 90 90 90 91 91 91 92 92 91 91 91 91 92 92 93 94 94 94 94 95 96 97 96 96 97 97 98 99 100 100 100 101 102 103 104 105 106 107 109 111 113
106 108 110 108 104 101 102 103 104 104 103 102 103 104 103 101 100 102 104 105 104 102 100 101 102 101 100 99 96 94 93 92 90 90 89 89 90 90 89 89 88 89 89 89 89 89 89 89 90 90 90 91 91 92 92 92 92 92 93 94 94 94 95 95 95 97 98 98 98 97 97 98 99 100 101 101 100 101 102 103 104 105 106 107 108 110
108 109 111 112 108 104 103 103 103 103 101 100 100 100 99 98 98 99 99 101 101 99 99 100 100 98 99 98 96 94 93 91 91 90 89 88 88 89 89 89 89 89 89 90 90 90 90 89 90 90 91 91 92 92 92 92 92 92 92 93 94 95 95 95 95 96 97 99 99 99 98 98 99 100 101 101 101 101 101 102 103 104 105 106 107 108
109 109 111 113 112 109 107 106 104 103 102 100 100 100 99 99 100 99 99 99 98 96 96 99 99 98 97 97 95 93 92 91 91 90 89 89 88 88 87 87 88 88 89 90 91 91 90 90 90 90 91 91 92 92 92 92 92 92 92 93 93 94 95 95 96 96 97 98 99 100 100 99 99 100 101 102 102 102 102 102 102 103 104 105 106 106
108 107 107 109 109 108 108 107 105 105 104 104 102 100 100 99 99 99 99 98 97 96 94 95 97 96 95 95 94 91 91 90 90 89 88 88 88 87 86 86 85 86 88 88 89 90 90 90 90 90 91 91 92 92 92 92 92 92 92 93 93 94 94 95 95 96 96 98 99 99 100 101 100 100 100 102 103 103 103 102 102 103 104 104 105 106
105 104 103 103 103 105 107 107 106 106 106 105 102 99 98 98 97 98 98 97 95 95 93 91 92 93 93 92 91 89 89 89 87 87 86 86 87 86 86 85 84 84 85 86 86 87 88 88 88 89 89 90 90 91 91 91 91 92 92 93 94 95 95 95 95 96 96 97 98 99 100 100 101 101 101 101 102 104 104 104 103 103 103 104 105 106
103 102 103 103 102 104 107 107 106 105 104 102 100 98 96 95 94 93 93 92 92 91 90 88 88 88 89 89 87 87 87 87 85 84 84 85 85 85 85 84 83 83 84 85 84 84 85 85 85 86 87 87 88 88 88 89 89 90 91 92 94 95 95 96 96 96 96 97 97 98 98 99 100 101 102 101 101 102 104 105 105 104 104 104 105 105
104 104 106 106 105 105 106 105 104 103 101 99 97 95 93 91 89 88 86 86 86 86 85 85 84 83 84 85 84 83 83 83 82 81 81 82 82 83 84 83 82 82 82 83 84 83 83 83 82 82 83 83 84 84 85 86 87 88 89 90 91 93 94 95 95 95 96 97 97 97 98 98 99 100 101 102 102 102 102 104 105 105 105 105 105 105
107 107 108 108 107 105 105 103 101 100 99 96 93 90 88 86 84 83 83 82 81 80 80 81 81 80 81 82 81 80 80 80 79 78 78 78 79 80 80 80 80 79 79 81 82 82 81 80 80 80 80 80 80 80 80 82 83 84 86 87 88 89 91 92 93 94 95 97 97 97 97 98 98 99 100 101 102 102 103 103 104 105 106 106 106 105
109 109 109 108 105 103 102 100 98 96 95 92 88 86 84 82 80 80 81 80 78 76 74 75 77 77 78 78 78 78 79 78 77 77 76 76 76 76 77 77 76 76 76 78 80 79 79 78 77 76 76 76 76 76 76 77 78 80 82 83 85 86 87 89 91 92 94 96 97 97 97 98 98 99 99 100 101 102 103 104 105 105 106 107 107 107
108 108 107 107 105 101 100 98 95 93 90 87 85 83 81 79 77 77 78 79 78 75 72 71 72 73 74 75 74 73 74 75 75 76 76 74 74 73 74 74 73 72 73 75 76 77 76 75 74 72 72 72 72 72 72 73 75 77 78 80 81 82 83 85 86 89 91 94 96 96 96 97 97 98 99 99 101 102 104 105 106 106 106 107 107 107
105 105 105 105 104 101 98 96 93 91 89 87 85 83 80 77 74 73 76 79 78 75 73 72 71 71 72 72 72 71 71 72 73 74 75 74 73 71 70 71 71 70 70 71 72 73 73 72 70 68 68 69 69 69 70 71 74 75 74 75 77 79 80 81 82 84 88 91 94 95 95 95 95 96 97 98 99 101 103 104 106 106 107 107 106 106
101 101 100 101 102 100 98 96 92 89 88 86 84 82 80 77 75 72 75 79 79 75 74 74 73 73 72 72 72 72 71 71 72 74 74 72 73 72 68 68 70 69 68 68 68 69 69 68 66 64 63 64 65 66 68 70 72 73 71 71 73 75 77 77 78 80 83 87 90 92 92 92 93 93 94 95 97 98 100 102 104 105 106 106 106 106
98 98 97 97 97 96 94 94 92 88 85 83 82 81 79 77 75 72 72 77 79 76 74 74 73 74 73 72 72 72 71 70 70 73 74 70 71 73 70 66 67 68 67 66 65 66 66 65 64 62 60 60 60 62 64 67 70 71 70 69 70 71 72 73 74 76 79 82 85 88 89 89 89 89 90 92 94 96 98 99 101 102 103 104 105 105
95 96 96 95 96 95 93 92 91 89 86 83 81 80 78 75 74 72 69 72 73 72 71 69 69 69 69 68 67 67 67 65 65 68 70 66 66 70 69 66 65 66 65 63 62 62 62 62 62 60 58 58 58 59 61 64 66 68 68 69 69 69 69 70 71 73 75 78 80 83 84 85 85 85 86 88 90 92 94 96 97 99 100 101 102 103
94 95 96 96 96 96 94 92 89 86 84 82 80 79 77 75 75 73 72 72 72 70 68 66 64 64 63 62 62 62 61 60 61 64 67 64 63 65 67 66 65 65 65 63 61 60 59 58 57 56 55 55 55 56 58 61 63 64 66 67 67 67 67 67 68 70 72 74 76 77 79 79 80 81 82 84 86 88 90 92 93 95 96 97 98 100
92 93 94 95 94 93 92 91 89 87 84 82 80 78 76 75 75 73 72 72 71 70 69 67 65 64 63 62 61 61 59 57 56 60 63 64 63 62 63 64 64 65 66 65 63 62 60 57 55 53 52 52 52 53 55 58 60 62 64 65 65 64 64 64 65 67 69 71 72 73 74 74 75 76 78 80 82 84 86 88 89 91 93 94 95 96
91 92 92 93 93 92 90 89 89 87 84 82 80 78 75 74 74 72 71 70 68 67 67 67 66 65 64 63 61 60 59 56 53 54 56 58 59 59 59 59 60 60 62 63 63 62 62 60 56 53 51 50 50 52 53 55 58 60 62 63 63 62 62 62 63 64 65 67 68 70 70 70 71 72 74 76 77 79 82 84 85 87 89 90 91 93
91 92 92 92 91 91 91 89 87 85 83 80 79 78 75 73 72 72 71 70 67 64 64 64 63 62 61 61 60 59 58 57 55 53 53 53 54 54 54 54 55 55 56 57 57 58 59 59 57 54 51 50 49 51 52 54 55 57 58 59 60 60 61 61 61 62 62 63 65 66 67 67 68 69 71 72 74 76 78 80 81 83 84 86 87 88
93 94 94 93 92 91 90 89 86 82 80 78 77 78 78 75 73 70 69 69 68 65 63 63 61 60 58 59 59 57 56 57 56 55 55 54 52 52 51 51 51 52 52 53 53 52 53 54 54 53 51 49 49 50 51 52 53 54 55 55 56 57 59 59 60 60 61 61 62 63 64 64 65 67 68 70 71 73 75 76 77 79 80 82 83 84
93 94 94 94 93 91 90 89 87 84 81 79 77 76 76 75 72 68 67 67 67 66 64 63 62 61 58 57 57 56 55 55 55 55 55 54 53 52 51 49 48 48 49 49 50 50 50 50 50 50 49 48 48 48 49 50 51 52 52 53 53 55 56 57 58 58 59 60 60 61 62 63 63 65 66 68 69 70 71 72 73 75 76 78 79 81
92 93 93 93 93 93 91 90 89 85 83 81 79 76 76 75 72 69 66 65 64 64 64 63 62 62 60 57 57 56 55 55 55 54 54 53 52 50 50 48 48 47 46 46 46 47 47 47 47 47 47 47 47 47 47 48 50 50 51 51 52 52 53 54 55 56 57 57 58 60 60 61 62 63 64 66 67 67 68 69 70 71 73 74 75 77
91 91 91 90 91 92 93 92 90 87 84 82 81 79 77 76 74 71 69 66 64 63 63 61 59 59 59 57 57 57 56 55 55 54 53 53 51 50 48 48 47 46 46 45 45 45 44 45 45 45 44 44 45 45 45 46 48 48 49 50 50 51 51 52 52 53 54 55 56 57 58 59 60 61 62 63 64 65 66 67 68 69 70 71 73 74
91 90 89 89 87 87 87 89 90 89 85 83 82 81 80 78 75 71 68 66 64 63 63 61 58 57 57 56 56 56 56 55 54 54 53 52 51 49 48 47 46 45 45 44 44 44 43 43 43 43 43 43 43 43 44 44 45 46 47 48 49 50 50 51 51 51 52 53 54 55 55 56 57 58 60 61 62 63 64 65 66 67 68 69 70 72
91 88 88 88 87 86 84 84 86 88 87 83 80 79 79 78 76 73 69 66 64 63 63 61 59 57 57 56 56 56 56 55 54 53 52 51 50 49 48 47 46 45 44 43 43 43 42 41 41 42 42 42 41 41 42 42 43 43 44 45 46 47 48 49 49 50 51 51 52 52 53 54 55 56 57 58 60 60 61 62 63 64 65 66 67 69
89 86 84 85 86 86 85 83 83 85 87 85 81 78 75 74 73 71 69 66 64 62 62 62 60 57 56 56 55 56 56 55 53 52 52 51 50 49 48 48 47 45 44 43 43 43 43 42 41 41 41 40 40 40 41 41 41 41 42 42 43 43 44 45 46 47 48 49 50 51 51 52 53 54 55 56 57 58 59 60 60 61 62 63 64 65
89 87 84 83 83 84 84 81 79 78 79 80 79 77 75 73 70 69 67 65 63 62 61 62 61 59 56 55 54 54 55 55 53 52 51 50 50 49 48 47 47 46 45 43 42 42 42 42 41 40 40 40 40 40 40 40 40 40 40 40 40 41 41 42 43 44 46 47 48 49 49 50 51 52 53 54 56 56 57 58 58 59 60 61 62 63
89 87 85 84 83 83 83 82 80 78 77 77 77 76 75 74 73 71 69 67 65 62 60 60 60 60 59 57 55 54 54 54 53 52 51 50 49 48 47 47 46 46 45 44 42 41 41 42 41 41 40 40 40 39 39 40 40 40 40 40 40 39 39 40 40 42 43 44 45 46 47 48 49 50 51 53 54 55 55 56 57 58 58 59 60 61
91 89 87 86 85 85 84 83 82 80 79 78 77 76 75 75 74 72 71 68 66 64 61 59 58 59 59 59 56 54 53 53 52 51 50 49 49 48 47 46 45 45 45 44 43 42 41 41 41 41 40 40 40 39 39 39 39 40 40 40 40 40 39 39 39 40 41 42 43 43 45 46 47 48 49 50 52 53 54 54 55 56 57 57 58 59
Wind_Direction
302 301 300 302 303 302 302 302 303 303 303 303 302 301 299 297 295 293 294 294 290 288 288 287 288 287 288 290 291 292 294 295 295 294 293 293 292 292 291 290 289 288 286 284 283 281 280 277 275 273 272 271 270 269 268 266 264 262 260 258 257 256 254 252 251 249 248 247 246 246 245 245 244 243 242 241 241 240 240 240 240 240 240 240 240 240
302 301 301 302 303 302 303 303 303 304 304 304 301 300 299 297 296 295 295 293 290 290 289 287 287 288 289 290 290 292 293 293 294 295 295 294 294 292 291 290 289 288 287 285 283 281 280 278 276 273 271 270 269 268 268 267 266 265 263 260 258 257 256 254 252 251 250 248 247 246 246 245 245 245 245 244 243 242 241 241 241 241 241 241 241 241
301 301 302 303 303 303 304 304 304 304 304 303 301 300 299 297 297 296 294 293 291 291 290 288 288 288 289 290 291 292 292 292 293 294 294 295 294 294 293 292 290 289 287 286 284 282 280 278 276 274 272 270 269 268 267 266 266 265 264 263 261 258 257 255 253 252 251 250 249 248 247 246 246 246 246 246 245 245 244 243 242 242 242 242 241 242
301 302 303 303 303 304 304 304 304 304 304 302 301 300 299 298 297 295 293 291 291 291 290 290 291 290 290 291 291 291 291 292 293 293 293 294 294 294 293 293 292 290 289 287 285 284 282 280 278 275 273 271 269 268 267 266 265 264 264 263 262 260 259 258 256 254 253 251 250 249 249 248 247 247 246 246 246 246 246 245 244 244 244 243 242 242
303 303 304 303 303 304 304 304 303 303 303 302 302 300 299 298 297 295 293 292 291 291 291 292 292 291 291 292 291 290 291 292 292 292 293 293 293 293 292 292 292 291 290 289 287 285 284 282 280 278 276 273 271 269 268 266 265 264 263 262 261 260 259 259 258 257 255 253 251 250 250 249 248 248 247 247 247 246 246 246 245 245 244 244 243 243
304 305 304 304 304 304 304 303 303 303 303 302 301 300 299 298 297 296 295 294 294 293 293 293 293 292 292 291 290 290 290 291 291 291 292 292 291 291 291 291 290 290 290 289 288 287 285 284 282 280 278 276 274 272 269 267 265 264 262 261 260 260 259 258 258 258 257 256 254 252 251 250 248 248 248 248 248 247 247 246 246 246 246 246 245 245
305 305 304 304 304 304 303 303 303 302 302 302 300 299 299 298 298 297 297 296 296 295 295 296 295 293 292 291 290 290 290 291 291 291 290 290 289 289 289 289 288 288 288 288 288 287 286 285 283 282 280 278 276 274 271 269 266 264 263 261 260 259 259 258 258 257 257 256 256 254 253 252 250 249 248 248 248 248 248 248 247 247 247 248 247 247
305 304 304 304 304 303 303 303 302 302 302 301 300 300 299 299 298 298 297 297 297 295 296 298 295 293 292 291 291 291 292 293 292 291 289 288 287 287 287 287 286 286 286 285 285 285 285 285 284 283 281 280 278 276 273 271 268 266 263 262 260 259 258 257 257 257 256 256 255 255 254 254 253 251 249 249 248 248 248 248 249 248 248 248 248 248
304 304 304 304 304 303 303 302 302 302 301 301 300 300 299 299 298 298 297 297 296 295 297 298 294 293 293 293 293 294 294 293 291 290 289 288 287 287 286 286 285 284 284 283 282 282 282 282 282 281 281 279 278 276 274 272 270 267 265 262 261 259 258 256 256 256 255 255 255 254 254 254 253 253 252 251 250 249 249 249 249 249 249 249 249 249
305 304 304 304 303 302 302 302 302 301 301 301 300 300 299 299 298 297 297 296 296 296 298 297 295 295 294 294 295 296 294 293 291 290 289 289 288 288 287 285 284 284 283 282 281 280 280 279 279 279 278 277 276 275 274 272 270 269 267 264 261 260 258 257 255 254 254 254 254 254 253 253 252 252 252 252 251 251 250 249 249 249 249 249 249 249
305 304 304 304 303 302 302 302 302 302 301 301 300 299 299 298 297 297 297 297 297 297 298 297 296 296 295 295 296 295 293 292 290 289 289 289 288 288 287 286 285 284 283 282 281 280 279 278 277 276 276 275 274 273 272 270 269 268 266 265 263 261 259 258 256 255 254 253 253 252 252 252 251 251 251 251 251 251 251 250 249 249 249 249 249 249
305 305 305 305 304 303 303 302 302 302 302 301 300 300 299 299 298 297 297 297 297 297 298 297 295 294 294 295 295 293 292 291 290 289 289 288 287 286 286 286 286 285 284 283 282 281 279 278 277 276 275 274 273 272 271 270 268 266 265 264 263 262 260 258 257 256 255 253 252 251 251 251 251 250 250 250 250 250 250 250 250 250 250 250 250 249
305 306 306 305 304 303 302 302 301 301 300 300 300 300 299 299 298 297 297 297 296 296 296 294 293 292 292 292 291 291 290 290 289 289 288 287 286 286 286 286 285 285 285 284 283 281 280 278 277 276 275 273 272 271 270 269 268 267 265 263 262 261 260 259 258 257 256 255 254 253 251 251 250 250 250 249 249 249 249 249 249 249 249 250 250 250
305 306 305 304 302 301 300 300 300 300 299 299 299 299 298 298 297 297 296 296 295 295 294 294 294 292 291 290 290 289 289 289 289 288 287 287 286 286 285 285 285 284 284 283 282 280 279 278 276 275 274 272 271 270 269 269 268 268 266 264 263 261 260 259 258 257 256 255 255 254 253 252 251 250 250 249 249 249 249 249 248 248 249 249 249 250
305 305 305 303 302 301 300 300 301 300 300 300 300 299 298 298 297 297 297 296 295 295 294 295 294 292 291 291 290 289 288 289 288 287 287 286 286 286 285 285 284 283 282 281 280 279 278 276 275 273 272 271 270 269 268 267 267 267 266 266 264 263 261 260 259 258 257 256 255 254 254 253 252 251 250 250 249 249 249 249 249 248 248 248 248 249
306 306 305 304 303 302 302 302 301 301 300 300 299 298 298 298 297 297 297 296 296 295 295 295 294 292 292 291 290 289 289 289 288 287 287 286 286 286 285 285 284 283 282 281 280 279 277 275 274 272 271 269 269 268 267 266 266 265 265 265 265 264 263 262 261 260 259 258 257 256 255 254 253 252 251 251 250 250 249 249 249 248 248 248 248 248
305 305 304 304 303 302 302 302 301 300 300 300 300 299 299 298 297 297 297 297 296 296 296 296 294 293 292 291 290 291 290 289 288 288 287 287 287 286 286 285 284 284 283 282 281 280 278 277 275 273 271 269 268 266 266 265 265 264 264 263 263 263 263 262 261 261 260 260 259 257 256 255 254 253 252 252 251 251 250 250 249 249 248 248 248 248
305 305 304 303 302 301 301 300 300 300 300 300 300 299 299 298 298 297 297 297 297 296 296 296 294 293 292 292 292 291 290 289 288 287 287 287 286 286 285 285 284 283 283 282 281 280 279 278 277 275 273 271 269 267 265 264 263 263 263 262 262 262 262 262 262 261 260 259 259 258 257 256 255 254 253 253 252 251 251 251 251 250 249 249 249 249
305 305 304 302 301 301 301 300 300 300 299 299 299 299 298 298 298 298 297 298 298 297 296 296 294 293 293 293 293 292 290 289 287 287 286 286 285 285 284 284 283 282 282 281 280 280 279 278 277 276 274 273 271 269 267 265 263 262 261 261 261 260 260 260 261 261 260 259 258 258 258 257 256 255 254 254 253 252 252 251 251 251 251 251 250 249
305 305 305 304 303 303 302 301 301 300 300 299 299 299 298 298 298 298 298 298 298 298 298 298 296 295 294 293 293 292 291 290 288 288 287 286 286 285 284 283 282 282 281 280 279 278 278 277 276 275 274 273 272 270 269 267 265 263 261 260 259 259 259 258 259 259 260 259 258 258 257 257 257 256 256 255 254 253 253 252 251 251 251 251 251 251
305 305 306 306 305 304 304 303 303 302 302 302 302 301 300 300 300 300 300 300 299 299 300 299 298 297 296 295 294 293 292 291 290 289 287 287 286 285 284 283 282 281 280 279 278 277 276 276 275 274 273 272 271 270 269 268 266 265 263 261 259 258 258 257 257 257 258 258 258 258 257 257 257 256 256 256 255 254 253 253 252 252 251 251 251 251
306 306 306 306 306 305 305 304 303 303 303 303 303 303 303 303 304 303 303 302 301 301 301 300 299 298 297 296 295 293 292 291 290 289 288 287 286 285 284 283 282 281 279 278 277 276 275 275 274 273 272 271 270 269 267 266 265 264 263 262 261 259 258 257 256 256 256 256 257 258 258 258 257 256 256 255 255 255 255 254 253 252 252 251 251 251
307 307 306 306 306 305 305 304 303 303 304 304 304 303 303 304 304 303 302 302 301 300 300 299 298 298 297 296 294 293 292 292 291 290 289 288 286 285 284 283 282 280 279 278 276 275 274 273 272 271 270 269 268 267 266 265 264 263 263 262 261 260 259 258 257 257 256 255 255 256 257 257 258 257 257 256 255 255 255 254 254 253 252 252 251 251
308 307 307 306 306 307 306 306 305 304 304 304 303 302 303 303 303 301 300 300 299 299 299 298 297 297 297 296 295 294 294 293 292 290 289 288 287 286 284 283 282 280 279 278 276 275 274 272 271 270 269 268 267 266 265 264 263 262 262 261 260 260 259 258 257 257 257 257 256 255 255 256 257 257 257 257 256 255 255 254 254 254 254 253 252 252
308 308 308 308 309 309 309 307 306 306 305 305 305 304 305 306 305 303 302 301 300 301 300 299 298 298 297 297 296 296 295 294 293 292 290 288 287 285 284 283 282 281 279 278 276 275 273 272 271 269 268 267 266 265 264 263 262 261 260 260 260 259 259 258 257 257 257 257 256 256 255 254 255 256 257 257 256 256 256 255 255 254 254 254 253 253
309 310 309 310 310 311 311 310 309 309 309 309 309 309 310 309 307 305 304 302 302 302 301 299 299 298 298 297 297 296 296 295 293 292 290 289 287 285 284 282 281 280 279 278 276 275 273 272 270 269 268 267 266 265 264 263 262 261 260 260 259 259 258 258 257 257 256 256 256 256 256 255 254 254 255 256 257 256 255 255 255 255 255 255 254 254
309 310 309 309 310 311 311 311 312 312 312 312 312 313 312 310 308 306 305 304 303 302 301 299 299 298 298 297 296 296 295 294 292 291 290 289 288 287 285 283 281 280 278 277 276 275 274 273 272 270 269 268 266 265 264 263 263 262 261 260 259 259 258 257 257 256 255 255 255 255 256 255 254 253 253 254 255 256 256 255 255 254 255 255 255 255
309 309 309 309 311 312 312 313 313 313 313 313 313 313 311 309 308 306 305 304 303 302 301 299 298 298 297 296 296 295 294 293 292 291 291 290 289 288 287 285 284 282 280 279 277 276 275 274 273 272 271 269 268 267 266 265 264 263 262 261 260 259 258 258 257 256 255 255 255 254 254 255 255 254 253 252 253 254 255 255 255 254 254 254 254 254
310 311 312 312 314 314 313 313 314 313 313 313 313 312 310 309 308 306 305 304 303 301 300 300 298 297 297 296 296 295 294 293 293 292 292 291 290 289 287 286 285 284 282 281 280 278 277 275 274 273 272 270 269 268 267 266 265 263 262 261 260 260 259 259 258 257 256 255 255 254 254 254 254 255 255 254 253 252 253 254 255 254 254 253 253 253
314 315 315 316 316 316 314 314 314 314 313 313 313 311 310 309 308 307 305 303 302 301 301 300 299 298 297 296 296 295 294 294 293 292 291 290 289 288 287 287 286 285 284 283 282 281 280 278 277 276 274 272 271 270 268 267 266 264 263 262 261 261 260 260 259 258 258 257 256 255 254 254 254 254 255 255 254 254 253 253 253 254 254 254 253 252
317 317 317 316 316 316 315 315 315 314 314 314 313 312 311 311 309 308 306 304 303 302 302 301 301 300 299 298 298 297 296 294 293 292 291 290 288 287 287 287 286 286 285 285 284 283 282 281 280 278 277 275 274 272 270 269 267 266 265 263 262 261 260 260 259 259 258 258 257 256 256 255 254 254 254 254 255 255 254 254 253 253 254 254 254 253
318 317 316 316 316 316 316 316 316 315 315 315 314 314 314 313 312 310 309 307 305 304 304 303 303 302 301 300 299 299 298 297 296 294 292 291 290 289 288 288 287 287 286 284 284 283 283 282 281 280 279 278 277 276 274 272 270 267 265 263 262 260 259 259 259 258 258 258 257 257 256 255 255 254 253 253 254 254 255 255 254 254 254 254 254 255
317 317 316 316 317 317 317 317 317 317 317 317 318 317 316 315 315 313 312 310 308 307 307 306 304 303 301 300 299 299 298 298 297 296 295 293 292 292 291 290 289 288 287 286 285 285 284 283 283 282 282 281 279 277 275 273 270 267 265 264 263 261 259 258 257 257 257 257 257 257 256 256 255 255 254 254 254 254 254 255 255 255 255 255 254 255
317 317 318 318 318 319 319 319 320 321 321 321 321 319 318 317 317 316 314 311 310 310 311 309 307 305 304 302 301 301 299 299 299 298 297 296 295 295 294 293 292 290 289 288 287 286 286 286 285 284 282 280 279 277 275 272 270 268 267 266 265 263 262 260 257 256 256 256 257 257 256 256 256 255 255 255 254 254 254 254 255 256 256 256 256 256
318 318 318 319 319 320 321 322 323 323 323 323 322 321 320 320 320 320 317 313 313 314 314 312 311 308 307 306 304 304 303 302 302 300 298 298 298 297 296 295 294 292 291 290 289 289 288 288 286 284 282 279 278 277 275 273 272 271 269 267 266 265 264 262 260 258 257 256 256 256 256 256 256 255 255 255 255 255 254 254 255 255 256 257 257 257
319 319 320 320 320 322 323 323 324 324 324 324 323 322 323 322 321 322 319 315 315 316 315 313 311 309 308 307 306 305 304 303 302 299 299 299 298 297 297 296 294 293 293 292 291 290 290 289 287 285 282 280 277 275 274 273 272 272 271 269 267 265 264 264 262 261 259 258 257 257 257 256 256 255 255 255 255 255 255 255 255 255 255 256 257 257
321 321 322 322 323 324 325 325 325 326 326 326 325 324 324 323 322 322 319 315 314 314 313 311 309 307 306 305 303 302 301 300 298 296 296 297 296 295 296 296 294 293 293 292 291 289 289 288 288 287 285 283 280 277 275 273 272 272 271 270 268 267 266 264 263 261 260 259 258 258 258 258 258 257 256 255 254 254 254 254 254 255 255 255 255 256
325 325 325 326 326 326 327 326 326 327 327 327 326 325 325 325 324 323 321 318 317 315 313 311 309 307 306 305 304 303 302 302 301 299 299 299 298 297 297 298 297 296 295 294 293 291 289 288 287 286 285 284 281 279 276 275 274 273 272 271 269 268 266 265 263 262 261 261 260 260 259 260 259 259 257 256 255 255 255 255 255 255 255 255 255 255
327 327 327 327 327 327 327 327 328 329 329 328 327 327 327 326 325 324 322 320 319 318 317 316 315 314 313 311 310 308 307 306 304 302 301 301 301 300 299 299 298 298 297 297 296 295 293 291 289 287 285 283 280 278 275 274 274 273 273 272 271 270 268 266 264 263 262 262 261 261 260 260 260 259 258 257 257 256 256 256 255 255 255 255 255 255
329 329 329 328 328 328 328 329 329 330 330 329 328 328 328 327 326 325 323 321 321 320 319 318 318 317 315 313 312 310 308 307 304 301 300 299 299 299 297 297 296 295 295 295 296 295 295 293 292 290 287 284 281 278 275 273 272 272 272 273 273 273 271 269 267 265 264 263 262 261 261 260 259 259 258 258 257 257 256 256 255 255 255 255 255 255
331 331 330 330 330 330 330 330 330 330 330 330 329 328 328 329 328 327 326 324 323 321 319 318 317 316 315 314 313 311 310 309 307 305 303 301 300 299 298 296 295 294 293 293 294 294 294 293 293 292 289 287 283 280 277 274 273 273 273 273 273 273 272 271 270 268 266 265 263 263 262 261 260 259 259 258 257 256 256 256 256 255 255 255 255 255
334 333 332 332 332 332 331 330 330 331 331 331 331 330 330 331 330 329 327 325 324 323 321 320 319 318 317 315 314 313 313 312 311 310 308 307 305 304 302 300 299 297 296 295 294 293 293 292 292 292 290 288 285 282 280 277 276 275 274 273 273 272 272 271 270 270 268 267 266 265 264 263 262 261 260 259 258 257 257 257 256 256 256 256 255 255
336 335 334 334 333 332 332 331 331 332 333 332 333 332 331 331 331 330 328 326 325 325 324 323 321 320 320 318 317 316 316 315 314 313 312 310 309 308 306 305 302 300 299 298 297 296 294 293 292 291 290 288 286 283 281 280 278 277 275 274 273 272 272 271 270 270 269 268 267 266 265 263 262 261 261 260 259 259 259 258 257 257 256 256 256 255
337 337 336 335 334 333 333 333 333 334 334 334 334 334 333 332 332 331 330 329 328 326 325 325 324 322 322 321 320 319 319 318 317 316 314 313 312 311 309 308 306 305 303 301 299 297 296 295 293 292 291 289 287 285 283 281 280 279 278 276 275 274 272 271 270 270 269 268 267 266 265 264 263 263 262 262 261 261 260 260 259 258 258 257 256 256
339 338 337 337 336 335 335 335 334 334 335 335 335 335 335 334 334 334 333 331 330 328 326 326 325 323 323 323 323 322 322 321 319 318 317 316 314 313 312 311 310 308 306 304 303 301 299 297 296 294 293 291 289 287 285 283 281 280 279 278 277 275 274 272 271 270 269 268 267 266 266 265 265 264 263 263 262 261 261 260 260 259 259 258 258 257
340 340 339 338 337 337 337 336 335 335 336 337 337 337 336 335 335 335 334 333 332 330 328 327 327 326 325 326 325 324 323 322 321 320 319 318 316 316 315 314 313 311 309 307 306 304 303 301 299 298 296 294 291 289 286 284 283 281 280 279 278 277 276 275 273 272 270 269 268 267 266 266 265 265 264 264 263 262 261 261 260 259 259 258 258 258
341 341 340 339 338 338 338 339 337 336 336 338 338 338 337 336 336 336 336 335 334 331 330 329 330 330 329 328 328 326 324 324 323 322 321 319 319 319 318 316 315 313 311 310 309 307 306 304 302 300 298 296 294 291 288 286 284 282 281 280 279 278 277 276 275 274 273 272 270 269 268 267 266 266 265 265 264 263 263 262 261 260 260 259 258 258
341 341 341 341 340 340 340 341 341 339 338 338 339 339 338 337 336 336 336 336 335 334 332 331 331 332 331 330 329 328 326 325 324 323 322 321 321 321 320 318 317 315 314 313 312 310 309 307 305 303 301 299 297 294 292 289 286 283 281 280 279 279 278 278 277 276 275 274 273 272 270 269 268 267 266 266 265 265 264 263 263 262 261 261 260 260
342 342 343 343 342 341 341 341 342 341 339 338 338 339 339 339 338 338 337 337 337 336 335 333 332 332 332 331 331 329 327 325 324 324 323 323 322 321 321 320 318 317 316 315 314 312 311 310 308 306 304 302 300 298 295 293 290 288 285 283 281 279 278 278 277 277 276 275 274 273 272 271 270 269 268 267 267 266 265 265 264 263 263 262 262 261
343 343 344 344 344 343 342 341 341 341 340 339 339 340 341 341 340 340 340 339 339 338 337 336 334 333 333 333 333 331 328 326 326 325 325 324 323 322 321 321 319 318 317 316 315 313 312 311 310 309 307 305 303 301 298 296 294 292 290 288 285 283 281 279 278 277 276 275 274 273 272 272 271 270 269 268 268 267 267 266 265 264 264 263 262 262
344 344 345 345 346 345 344 343 342 342 342 341 341 342 342 343 342 342 341 340 340 339 338 338 337 336 334 333 332 331 329 328 327 327 326 325 324 323 322 321 320 319 318 317 315 314 313 312 311 310 309 307 305 303 301 298 296 295 293 291 289 287 285 282 280 278 277 275 274 274 273 272 271 270 269 269 268 267 267 266 265 265 264 263 263 262
Height
10564 10560 10553 10551 10549 10545 10543 10538 10535 10532 10528 10526 10521 10518 10516 10513 10511 10503 10499 10503 10496 10494 10496 10489 10484 10479 10477 10477 10471 10465 10462 10458 10455 10452 10451 10450 10449 10447 10445 10444 10442 10440 10438 10437 10436 10434 10433 10432 10432 10431 10429 10427 10424 10423 10422 10421 10421 10420 10420 10421 10420 10419 10420 10421 10421 10420 10420 10422 10424 10426 10428 10429 10428 10429 10432 10437 10441 10443 10444 10445 10447 10450 10453 10456 10458 10460
10558 10553 10548 10546 10542 10537 10534 10530 10526 10524 10520 10517 10513 10510 10507 10502 10502 10498 10494 10493 10487 10485 10486 10482 10477 10471 10469 10470 10465 10460 10456 10450 10446 10441 10438 10437 10435 10433 10432 10432 10431 10429 10427 10426 10425 10424 10422 10422 10421 10421 10419 10417 10415 10414 10413 10412 10410 10410 10410 10410 10410 10409 10408 10409 10409 10407 10408 10411 10413 10414 10414 10413 10415 10419 10424 10428 10430 10430 10431 10434 10438 10439 10440 10443 10445 10446
10552 10547 10543 10539 10534 10529 10525 10521 10517 10515 10512 10508 10503 10501 10499 10494 10493 10492 10488 10484 10479 10477 10475 10472 10469 10463 10461 10462 10457 10453 10448 10443 10439 10434 10429 10426 10422 10419 10417 10416 10417 10417 10416 10414 10412 10411 10410 10410 10409 10410 10409 10407 10406 10404 10403 10402 10401 10400 10399 10398 10399 10399 10397 10396 10396 10396 10397 10400 10401 10400 10400 10401 10406 10411 10413 10415 10415 10416 10419 10423 10426 10426 10425 10427 10430 10431
10545 10541 10538 10532 10526 10522 10517 10512 10507 10505 10503 10498 10493 10490 10488 10486 10483 10482 10481 10477 10473 10469 10464 10461 10459 10454 10452 10454 10450 10444 10440 10435 10431 10426 10421 10417 10413 10409 10405 10402 10401 10401 10402 10401 10399 10398 10396 10396 10396 10396 10397 10397 10396 10395 10393 10392 10391 10390 10390 10388 10387 10388 10387 10384 10384 10385 10385 10388 10389 10388 10389 10392 10396 10398 10400 10400 10401 10403 10406 10407 10410 10411 10410 10410 10413 10417
10537 10534 10530 10525 10519 10514 10509 10504 10499 10496 10494 10490 10485 10480 10477 10476 10473 10470 10470 10469 10466 10462 10457 10453 10448 10442 10442 10444 10441 10436 10432 10428 10423 10418 10413 10407 10403 10400 10396 10393 10389 10386 10385 10385 10385 10384 10383 10382 10382 10382 10383 10384 10384 10383 10382 10381 10380 10379 10379 10377 10376 10376 10376 10374 10374 10374 10374 10376 10377 10377 10378 10381 10383 10385 10386 10387 10388 10388 10389 10390 10392 10394 10394 10394 10400 10407
10531 10526 10521 10516 10511 10505 10500 10495 10490 10486 10485 10482 10477 10472 10467 10466 10463 10459 10457 10455 10456 10453 10450 10448 10438 10430 10431 10432 10429 10425 10423 10421 10416 10410 10404 10398 10393 10389 10386 10383 10381 10377 10373 10370 10369 10368 10369 10368 10367 10367 10368 10369 10369 10369 10369 10369 10369 10368 10367 10366 10365 10364 10365 10364 10363 10363 10362 10363 10365 10365 10366 10368 10370 10373 10374 10374 10373 10372 10374 10376 10377 10379 10381 10383 10389 10395
10524 10519 10512 10507 10502 10497 10491 10486 10481 10477 10475 10472 10468 10464 10459 10456 10452 10449 10445 10441 10442 10441 10439 10440 10429 10417 10415 10417 10418 10416 10413 10411 10405 10399 10394 10389 10384 10380 10377 10374 10371 10369 10365 10361 10357 10354 10353 10352 10352 10352 10351 10352 10353 10354 10354 10355 10356 10355 10355 10354 10353 10352 10353 10353 10352 10352 10351 10351 10352 10353 10354 10355 10357 10361 10363 10361 10359 10358 10362 10363 10364 10368 10370 10371 10377 10380
10518 10512 10505 10499 10494 10488 10482 10477 10472 10468 10465 10462 10459 10455 10451 10447 10442 10439 10434 10429 10428 10427 10430 10431 10416 10402 10398 10398 10402 10403 10401 10399 10392 10385 10380 10376 10374 10370 10367 10364 10361 10359 10356 10353 10348 10345 10341 10338 10336 10336 10335 10335 10336 10336 10338 10339 10341 10341 10341 10341 10340 10339 10340 10340 10340 10339 10339 10339 10339 10340 10342 10343 10345 10347 10349 10349 10347 10348 10351 10352 10353 10356 10357 10358 10363 10366
10511 10505 10498 10492 10486 10479 10473 10467 10463 10459 10455 10452 10449 10445 10441 10437 10433 10428 10423 10420 10414 10411 10421 10422 10401 10389 10385 10380 10384 10388 10386 10383 10376 10369 10364 10361 10360 10358 10355 10353 10350 10347 10345 10342 10339 10336 10332 10329 10325 10322 10320 10320 10319 10320 10320 10322 10323 10324 10326 10326 10326 10325 10325 10325 10325 10325 10326 10326 10327 10328 10329 10331 10332 10333 10335 10335 10335 10337 10340 10341 10342 10343 10344 10346 10350 10351
10504 10498 10491 10485 10478 10471 10465 10459 10454 10450 10446 10442 10438 10434 10430 10427 10422 10417 10411 10407 10401 10397 10408 10409 10389 10377 10371 10364 10370 10373 10369 10366 10360 10354 10350 10345 10343 10341 10340 10338 10336 10334 10331 10329 10326 10324 10321 10318 10315 10312 10308 10306 10304 10304 10304 10305 10306 10307 10308 10309 10310 10311 10310 10310 10311 10310 10311 10312 10313 10314 10315 10317 10318 10319 10321 10321 10322 10324 10326 10328 10330 10331 10330 10332 10336 10338
10496 10490 10483 10477 10469 10462 10457 10451 10446 10441 10436 10431 10426 10422 10419 10415 10409 10405 10401 10394 10386 10384 10390 10391 10379 10365 10355 10352 10355 10355 10351 10348 10343 10339 10337 10332 10328 10325 10323 10321 10320 10319 10317 10315 10312 10309 10307 10304 10301 10299 10296 10293 10290 10289 10288 10289 10290 10291 10290 10291 10292 10294 10295 10295 10295 10295 10296 10297 10298 10299 10300 10302 10304 10305 10306 10307 10308 10309 10312 10314 10317 10318 10317 10319 10323 10325
10489 10482 10475 10467 10458 10451 10446 10441 10436 10431 10426 10419 10413 10408 10403 10401 10395 10389 10390 10385 10376 10374 10374 10374 10370 10356 10345 10343 10342 10337 10334 10330 10327 10325 10322 10319 10315 10311 10308 10305 10303 10301 10300 10300 10298 10295 10292 10289 10286 10285 10283 10281 10278 10275 10273 10272 10274 10275 10275 10275 10275 10276 10278 10279 10279 10280 10280 10281 10282 10283 10285 10287 10289 10291 10292 10293 10294 10294 10297 10300 10302 10304 10305 10306 10309 10311
10482 10476 10469 10459 10450 10442 10435 10430 10427 10422 10417 10410 10404 10397 10388 10386 10381 10375 10376 10372 10365 10364 10360 10357 10357 10347 10337 10334 10330 10324 10318 10314 10312 10310 10307 10303 10300 10297 10294 10291 10289 10286 10284 10283 10281 10280 10278 10275 10272 10270 10268 10267 10265 10262 10260 10258 10257 10258 10260 10260 10260 10260 10261 10261 10262 10264 10264 10265 10266 10267 10269 10271 10273 10275 10277 10278 10279 10280 10281 10285 10288 10290 10291 10293 10295 10297
10475 10471 10464 10453 10443 10437 10427 10421 10417 10413 10408 10402 10397 10388 10377 10372 10363 10358 10362 10358 10352 10350 10345 10341 10339 10332 10324 10320 10318 10314 10306 10301 10299 10295 10291 10287 10283 10281 10279 10277 10274 10272 10269 10267 10265 10264 10263 10261 10258 10256 10253 10252 10251 10249 10247 10245 10243 10242 10242 10243 10245 10245 10245 10245 10245 10246 10247 10249 10250 10251 10253 10255 10257 10259 10260 10263 10264 10265 10266 10269 10272 10275 10276 10279 10281 10283
10465 10463 10458 10446 10435 10428 10421 10412 10405 10399 10394 10390 10387 10376 10367 10360 10345 10337 10342 10341 10337 10334 10331 10329 10321 10311 10308 10304 10301 10300 10294 10290 10286 10280 10276 10271 10268 10266 10263 10262 10259 10256 10254 10252 10250 10249 10248 10247 10244 10242 10239 10237 10236 10235 10234 10233 10231 10229 10228 10227 10228 10228 10229 10230 10230 10230 10231 10232 10234 10235 10237 10238 10240 10242 10244 10246 10248 10250 10252 10253 10256 10260 10261 10263 10266 10267
10456 10453 10447 10438 10426 10415 10410 10404 10393 10385 10378 10375 10373 10365 10356 10350 10335 10323 10321 10322 10318 10311 10315 10321 10305 10291 10290 10286 10284 10285 10282 10277 10270 10264 10260 10255 10253 10251 10248 10246 10243 10239 10238 10236 10234 10232 10231 10231 10230 10227 10225 10223 10221 10220 10219 10218 10217 10216 10215 10213 10213 10213 10213 10214 10214 10215 10215 10216 10217 10218 10220 10222 10224 10226 10227 10230 10232 10234 10236 10238 10241 10244 10246 10249 10251 10252
10447 10449 10441 10430 10421 10407 10399 10395 10385 10373 10365 10359 10354 10349 10342 10335 10325 10311 10302 10305 10303 10291 10295 10304 10292 10278 10271 10266 10268 10271 10266 10261 10255 10247 10243 10240 10237 10235 10231 10229 10226 10223 10221 10219 10217 10215 10213 10214 10213 10211 10210 10209 10208 10206 10204 10203 10202 10201 10200 10200 10199 10198 10198 10198 10199 10200 10200 10200 10200 10201 10203 10205 10207 10209 10211 10213 10215 10217 10220 10222 10225 10228 10231 10233 10236 10237
10429 10438 10437 10423 10412 10403 10391 10384 10378 10366 10356 10348 10340 10333 10326 10318 10313 10301 10284 10285 10287 10279 10278 10282 10276 10266 10254 10246 10251 10255 10250 10245 10239 10232 10227 10224 10220 10217 10214 10211 10209 10206 10204 10202 10200 10198 10196 10196 10195 10193 10192 10192 10191 10190 10189 10188 10187 10186 10185 10184 10184 10183 10182 10181 10182 10183 10184 10184 10184 10184 10186 10188 10190 10192 10195 10197 10199 10201 10203 10205 10208 10211 10215 10217 10220 10223
10410 10415 10426 10419 10402 10395 10384 10371 10366 10357 10345 10339 10331 10323 10313 10302 10298 10290 10274 10267 10264 10260 10261 10264 10261 10252 10241 10233 10231 10231 10231 10226 10221 10217 10212 10208 10203 10200 10197 10194 10192 10189 10187 10185 10182 10180 10178 10177 10177 10176 10173 10172 10172 10172 10172 10172 10172 10171 10170 10168 10167 10167 10167 10166 10165 10165 10167 10168 10168 10168 10169 10170 10173 10175 10177 10180 10182 10184 10187 10189 10192 10195 10198 10201 10204 10207
10398 10390 10400 10406 10391 10381 10372 10358 10350 10342 10329 10323 10318 10311 10302 10292 10284 10276 10267 10259 10246 10237 10237 10239 10239 10234 10227 10224 10216 10210 10209 10205 10201 10199 10194 10189 10186 10182 10179 10177 10174 10172 10168 10167 10164 10162 10160 10158 10159 10158 10156 10154 10154 10153 10153 10154 10154 10154 10153 10153 10152 10151 10151 10150 10149 10149 10149 10151 10152 10152 10153 10153 10155 10157 10160 10162 10164 10167 10169 10172 10175 10178 10181 10184 10187 10190
10392 10378 10375 10383 10377 10367 10358 10343 10332 10323 10311 10303 10297 10290 10283 10276 10269 10259 10254 10251 10236 10224 10221 10215 10211 10210 10207 10205 10199 10192 10188 10184 10182 10179 10174 10171 10167 10163 10161 10158 10156 10154 10151 10148 10146 10144 10141 10139 10139 10140 10138 10137 10136 10136 10135 10135 10135 10134 10134 10135 10135 10135 10135 10134 10134 10133 10133 10134 10135 10136 10137 10138 10139 10141 10143 10145 10146 10150 10152 10155 10158 10161 10163 10167 10169 10172
10378 10368 10359 10360 10358 10352 10345 10333 10319 10308 10298 10290 10281 10272 10263 10257 10251 10238 10230 10231 10220 10210 10207 10196 10186 10186 10186 10184 10179 10173 10169 10166 10163 10159 10156 10153 10149 10145 10143 10140 10137 10135 10133 10131 10128 10126 10124 10122 10121 10121 10120 10118 10118 10118 10118 10117 10116 10115 10115 10115 10115 10116 10117 10117 10117 10117 10117 10119 10119 10119 10120 10121 10122 10124 10127 10129 10130 10132 10135 10137 10141 10144 10147 10149 10152 10154
10364 10353 10344 10343 10342 10337 10331 10321 10309 10298 10288 10280 10269 10259 10251 10247 10242 10226 10213 10211 10205 10198 10195 10183 10170 10166 10164 10162 10160 10156 10152 10148 10145 10141 10138 10134 10130 10127 10124 10121 10119 10116 10113 10112 10110 10108 10108 10106 10104 10103 10102 10100 10099 10099 10099 10098 10098 10098 10097 10096 10096 10097 10098 10099 10099 10099 10099 10101 10103 10104 10105 10105 10106 10107 10109 10112 10115 10117 10119 10121 10123 10126 10129 10132 10135 10137
10355 10342 10327 10322 10323 10323 10317 10305 10293 10285 10278 10271 10261 10250 10242 10240 10234 10221 10207 10197 10188 10185 10183 10171 10160 10154 10147 10141 10139 10137 10134 10131 10127 10124 10121 10116 10112 10108 10105 10102 10099 10097 10094 10092 10090 10089 10088 10087 10085 10084 10083 10082 10080 10080 10080 10080 10080 10080 10080 10078 10078 10079 10080 10081 10083 10083 10082 10083 10084 10087 10090 10090 10090 10091 10092 10094 10097 10100 10103 10105 10108 10109 10112 10115 10118 10120
10340 10330 10312 10299 10296 10298 10296 10288 10277 10268 10263 10257 10248 10237 10230 10225 10215 10204 10195 10183 10172 10168 10163 10150 10142 10140 10132 10123 10121 10119 10115 10112 10108 10104 10100 10097 10093 10089 10086 10083 10080 10077 10075 10071 10069 10068 10067 10066 10065 10064 10063 10061 10060 10061 10061 10061 10061 10062 10062 10062 10061 10062 10063 10064 10066 10067 10067 10067 10067 10069 10072 10075 10076 10076 10076 10078 10080 10083 10085 10088 10091 10093 10095 10098 10101 10104
10326 10319 10302 10285 10276 10272 10267 10263 10255 10246 10240 10234 10227 10219 10211 10204 10193 10182 10175 10166 10157 10154 10149 10135 10124 10121 10117 10107 10102 10101 10098 10094 10089 10083 10079 10075 10072 10070 10067 10065 10062 10059 10056 10052 10049 10047 10046 10046 10045 10044 10043 10042 10041 10042 10041 10042 10042 10043 10044 10045 10045 10046 10047 10048 10049 10051 10052 10052 10052 10053 10055 10058 10061 10062 10062 10062 10064 10066 10069 10071 10073 10076 10079 10081 10084 10086
10316 10311 10299 10284 10273 10264 10253 10245 10237 10228 10219 10212 10207 10202 10194 10184 10174 10164 10156 10149 10142 10137 10134 10125 10112 10106 10103 10094 10087 10086 10082 10076 10072 10067 10062 10058 10053 10050 10048 10046 10045 10041 10038 10035 10032 10029 10028 10027 10026 10026 10025 10025 10024 10024 10024 10024 10025 10025 10026 10027 10027 10028 10029 10030 10032 10034 10036 10037 10037 10039 10039 10040 10044 10047 10049 10049 10049 10050 10052 10055 10057 10059 10062 10064 10067 10069
10307 10301 10293 10282 10272 10260 10245 10234 10226 10217 10206 10197 10192 10189 10180 10169 10160 10150 10139 10132 10127 10118 10114 10112 10102 10091 10086 10080 10076 10073 10066 10060 10057 10053 10049 10044 10038 10034 10030 10027 10026 10023 10019 10017 10015 10013 10011 10010 10009 10008 10007 10007 10007 10007 10007 10008 10009 10009 10009 10009 10009 10009 10010 10011 10013 10015 10018 10019 10021 10023 10024 10025 10026 10028 10032 10035 10036 10036 10036 10037 10040 10043 10046 10047 10050 10052
10296 10287 10276 10267 10262 10252 10236 10224 10216 10206 10196 10186 10180 10174 10164 10154 10147 10140 10128 10119 10111 10103 10096 10094 10089 10080 10070 10064 10062 10058 10049 10045 10044 10040 10035 10029 10024 10019 10014 10010 10009 10005 10001 9998 9996 9995 9994 9993 9993 9992 9990 9990 9989 9990 9990 9991 9991 9992 9992 9992 9992 9991 9991 9992 9994 9996 9998 10000 10002 10004 10007 10009 10011 10011 10013 10016 10020 10022 10022 10022 10024 10026 10029 10031 10033 10035
10279 10271 10259 10249 10245 10237 10223 10213 10204 10193 10184 10178 10170 10160 10151 10143 10134 10125 10117 10108 10099 10092 10085 10078 10074 10069 10059 10051 10048 10045 10038 10032 10029 10026 10022 10016 10010 10004 9998 9995 9993 9990 9986 9982 9980 9979 9977 9976 9976 9975 9974 9973 9973 9974 9974 9973 9973 9974 9975 9975 9975 9975 9976 9975 9977 9980 9981 9981 9983 9985 9988 9992 9994 9995 9996 9997 10000 10004 10006 10008 10009 10010 10011 10014 10017 10019
10262 10255 10245 10234 10230 10224 10211 10202 10194 10181 10171 10165 10158 10148 10139 10131 10123 10111 10102 10095 10088 10083 10075 10065 10059 10055 10047 10038 10033 10030 10024 10019 10015 10012 10008 10003 9997 9991 9985 9982 9979 9977 9974 9969 9964 9963 9962 9961 9960 9959 9957 9957 9957 9958 9958 9957 9957 9958 9958 9958 9958 9959 9960 9960 9961 9964 9965 9964 9966 9968 9970 9973 9976 9977 9979 9981 9982 9985 9987 9990 9992 9993 9995 9996 9999 10002
10250 10242 10233 10222 10218 10213 10200 10190 10184 10172 10161 10152 10144 10137 10128 10118 10110 10099 10086 10079 10075 10071 10067 10059 10050 10042 10035 10027 10021 10015 10008 10002 10000 9996 9992 9988 9984 9978 9973 9970 9968 9966 9962 9956 9951 9949 9948 9947 9947 9945 9944 9943 9943 9943 9943 9942 9941 9941 9940 9940 9941 9942 9943 9944 9945 9947 9948 9948 9949 9951 9954 9956 9959 9961 9963 9965 9966 9967 9968 9970 9972 9975 9977 9979 9981 9984
10240 10231 10222 10209 10203 10200 10189 10178 10170 10159 10150 10142 10131 10122 10115 10106 10099 10089 10075 10064 10058 10055 10055 10051 10043 10033 10025 10017 10012 10007 9999 9991 9986 9981 9976 9973 9971 9967 9962 9957 9956 9954 9950 9944 9940 9937 9936 9934 9934 9934 9932 9930 9929 9928 9927 9925 9923 9923 9923 9923 9924 9926 9927 9929 9930 9931 9931 9931 9931 9933 9937 9940 9942 9944 9947 9949 9951 9951 9952 9952 9954 9955 9958 9960 9963 9966
10234 10222 10211 10197 10187 10183 10175 10165 10158 10146 10134 10127 10120 10110 10102 10096 10090 10082 10066 10052 10046 10044 10040 10036 10030 10022 10014 10006 10000 9997 9991 9984 9978 9970 9963 9959 9957 9956 9953 9946 9941 9940 9938 9933 9928 9925 9923 9922 9922 9922 9920 9918 9915 9914 9912 9909 9907 9908 9911 9911 9910 9910 9911 9913 9916 9917 9916 9915 9914 9916 9920 9923 9926 9928 9931 9933 9935 9936 9936 9936 9937 9938 9939 9942 9945 9949
10227 10217 10207 10193 10179 10171 10162 10150 10144 10139 10126 10116 10107 10098 10090 10082 10077 10072 10057 10039 10033 10033 10028 10020 10014 10007 10001 9994 9987 9982 9979 9975 9968 9958 9952 9949 9944 9941 9942 9938 9929 9926 9925 9922 9918 9913 9910 9909 9909 9907 9906 9904 9902 9900 9898 9896 9893 9894 9897 9898 9898 9896 9896 9898 9900 9902 9902 9900 9898 9899 9903 9906 9910 9913 9916 9918 9919 9920 9921 9921 9922 9923 9924 9926 9929 9931
10219 10207 10198 10188 10174 10165 10157 10142 10131 10126 10120 10109 10097 10086 10080 10072 10064 10062 10051 10031 10020 10019 10015 10009 10001 9993 9987 9983 9976 9971 9967 9965 9959 9946 9939 9940 9935 9927 9927 9927 9921 9915 9912 9911 9908 9903 9899 9896 9895 9894 9892 9891 9889 9887 9885 9882 9880 9880 9882 9883 9883 9883 9883 9884 9886 9886 9886 9885 9884 9884 9886 9890 9894 9899 9902 9903 9903 9904 9904 9905 9907 9909 9910 9913 9914 9916
10212 10198 10188 10178 10165 10153 10146 10135 10122 10112 10105 10098 10088 10077 10071 10065 10056 10053 10047 10033 10021 10015 10009 10003 9996 9987 9981 9976 9970 9964 9959 9956 9951 9939 9930 9931 9927 9918 9914 9914 9911 9906 9902 9900 9897 9893 9890 9886 9883 9882 9881 9880 9878 9876 9873 9871 9868 9868 9868 9868 9869 9871 9871 9872 9872 9872 9872 9872 9871 9871 9872 9875 9880 9884 9887 9888 9888 9888 9889 9890 9892 9893 9896 9899 9901 9902
10201 10187 10174 10164 10153 10141 10132 10123 10115 10107 10098 10090 10080 10069 10061 10054 10046 10040 10033 10024 10015 10008 10001 9996 9990 9982 9976 9970 9963 9957 9952 9948 9941 9929 9921 9919 9916 9910 9905 9901 9898 9894 9890 9888 9886 9882 9880 9877 9875 9873 9871 9870 9868 9865 9862 9859 9857 9855 9855 9854 9855 9857 9859 9860 9859 9859 9859 9859 9859 9860 9861 9864 9868 9870 9871 9872 9872 9873 9874 9876 9877 9878 9881 9884 9886 9887
10195 10181 10167 10155 10145 10136 10126 10113 10103 10096 10088 10079 10070 10062 10054 10045 10037 10031 10023 10013 10004 9996 9988 9982 9977 9970 9964 9959 9952 9947 9943 9940 9934 9923 9914 9909 9906 9901 9897 9892 9888 9883 9878 9874 9873 9870 9868 9866 9864 9863 9862 9860 9858 9854 9851 9849 9846 9843 9841 9840 9842 9844 9847 9848 9848 9848 9847 9847 9847 9848 9850 9853 9855 9856 9856 9857 9858 9859 9860 9861 9863 9864 9865 9868 9870 9872
10187 10174 10162 10150 10137 10126 10117 10107 10095 10086 10079 10070 10060 10053 10047 10039 10030 10023 10016 10006 9998 9989 9979 9972 9966 9961 9954 9948 9943 9938 9932 9930 9927 9920 9912 9906 9900 9895 9891 9887 9882 9877 9871 9866 9863 9860 9857 9854 9853 9853 9852 9850 9848 9844 9841 9839 9836 9833 9831 9830 9830 9832 9833 9835 9836 9836 9836 9836 9836 9837 9838 9840 9842 9842 9843 9844 9845 9846 9846 9847 9848 9850 9851 9853 9855 9857
10175 10163 10152 10141 10129 10117 10106 10098 10090 10081 10072 10063 10052 10043 10038 10033 10024 10014 10004 9996 9990 9984 9976 9968 9962 9956 9950 9941 9935 9930 9924 9918 9915 9911 9906 9901 9895 9890 9885 9881 9876 9870 9865 9861 9857 9853 9848 9844 9842 9842 9841 9840 9838 9834 9832 9829 9826 9825 9824 9823 9822 9822 9822 9822 9823 9824 9824 9825 9825 9825 9826 9828 9829 9830 9831 9832 9832 9832 9832 9834 9836 9837 9838 9840 9842 9843
10163 10150 10138 10127 10117 10108 10097 10088 10083 10077 10067 10058 10048 10035 10026 10021 10016 10008 9998 9988 9981 9975 9969 9961 9955 9950 9944 9935 9927 9922 9917 9910 9904 9900 9895 9890 9887 9882 9877 9873 9868 9862 9857 9853 9850 9847 9842 9837 9834 9833 9831 9830 9828 9824 9821 9820 9818 9816 9815 9814 9813 9813 9812 9812 9812 9812 9813 9813 9813 9814 9815 9816 9817 9818 9818 9819 9819 9819 9820 9822 9824 9825 9826 9828 9829 9831
10154 10141 10128 10115 10105 10098 10090 10078 10069 10064 10056 10048 10042 10033 10022 10014 10009 10003 9994 9983 9973 9966 9958 9951 9944 9939 9935 9928 9920 9914 9909 9903 9897 9892 9886 9881 9877 9872 9868 9864 9859 9854 9850 9845 9841 9837 9834 9831 9828 9825 9823 9821 9818 9816 9813 9810 9808 9807 9806 9805 9805 9804 9803 9803 9803 9802 9802 9802 9802 9803 9803 9804 9805 9806 9806 9806 9807 9808 9809 9811 9813 9814 9815 9816 9817 9818
10148 10135 10123 10110 10095 10083 10076 10068 10059 10053 10045 10036 10030 10024 10015 10006 9999 9993 9986 9978 9969 9960 9952 9944 9936 9929 9924 9919 9912 9905 9900 9895 9889 9884 9878 9873 9868 9864 9859 9855 9851 9846 9842 9838 9834 9830 9827 9823 9820 9818 9815 9813 9810 9808 9805 9802 9799 9798 9797 9796 9796 9795 9795 9794 9794 9793 9793 9793 9792 9792 9792 9793 9794 9794 9795 9795 9796 9797 9798 9799 9801 9802 9803 9804 9805 9806
10144 10131 10119 10108 10094 10076 10062 10053 10045 10042 10037 10027 10018 10012 10006 9997 9990 9982 9974 9968 9961 9953 9946 9940 9933 9924 9917 9911 9904 9897 9892 9887 9881 9876 9871 9865 9860 9856 9851 9847 9843 9838 9834 9830 9826 9823 9819 9816 9813 9810 9808 9805 9803 9800 9797 9794 9792 9791 9789 9787 9786 9786 9785 9785 9785 9784 9784 9783 9783 9783 9783 9783 9783 9784 9784 9784 9785 9786 9787 9789 9790 9790 9791 9792 9792 9793
10138 10127 10114 10103 10095 10084 10068 10051 10037 10029 10026 10020 10010 10000 9993 9986 9980 9975 9968 9960 9952 9945 9938 9933 9926 9918 9910 9904 9898 9890 9885 9880 9874 9869 9864 9858 9853 9848 9844 9839 9835 9831 9826 9822 9818 9815 9812 9809 9805 9802 9800 9798 9796 9793 9791 9788 9785 9783 9782 9780 9778 9777 9776 9776 9775 9775 9774 9774 9774 9774 9773 9774 9774 9774 9774 9774 9774 9775 9776 9778 9779 9779 9780 9781 9781 9781
10132 10123 10111 10097 10086 10078 10069 10056 10039 10023 10017 10014 10007 9997 9987 9976 9969 9964 9959 9953 9945 9937 9929 9923 9918 9911 9903 9896 9891 9884 9878 9873 9868 9862 9857 9852 9846 9841 9836 9832 9828 9824 9819 9815 9811 9807 9804 9801 9798 9795 9793 9790 9788 9786 9784 9781 9779 9777 9775 9773 9771 9769 9768 9767 9766 9765 9765 9764 9764 9764 9764 9764 9764 9764 9764 9764 9764 9764 9765 9766 9767 9768 9768 9769 9770 9770
10130 10122 10112 10099 10083 10070 10062 10054 10041 10023 10008 10002 9999 9995 9988 9979 9968 9959 9952 9947 9940 9932 9923 9915 9910 9905 9898 9891 9884 9878 9871 9866 9862 9856 9850 9845 9839 9835 9830 9825 9821 9817 9813 9809 9805 9800 9796 9794 9791 9788 9786 9783 9781 9778 9776 9774 9772 9770 9768 9766 9764 9762 9761 9759 9758 9757 9756 9755 9754 9754 9754 9755 9755 9754 9754 9754 9754 9754 9755 9755 9756 9757 9757 9758 9759 9759
10125 10115 10106 10096 10084 10071 10060 10051 10044 10033 10019 10005 9996 9989 9981 9974 9967 9958 9950 9943 9935 9928 9919 9909 9902 9897 9893 9888 9881 9873 9866 9861 9856 9851 9845 9839 9833 9829 9824 9819 9814 9810 9806 9802 9798 9794 9790 9786 9784 9781 9779 9776 9773 9771 9768 9766 9764 9762 9761 9759 9757 9756 9754 9752 9750 9749 9747 9746 9745 9745 9745 9745 9745 9745 9744 9744 9744 9744 9745 9745 9746 9746 9747 9747 9748 9748
10118 10108 10099 10090 10080 10069 10057 10045 10037 10029 10019 10007 9996 9986 9975 9965 9957 9949 9941 9934 9928 9922 9915 9907 9897 9889 9884 9880 9876 9870 9862 9856 9850 9845 9839 9834 9828 9823 9819 9814 9809 9804 9801 9797 9793 9789 9785 9781 9777 9774 9772 9769 9766 9764 9761 9759 9756 9754 9752 9751 9749 9748 9747 9745 9743 9741 9740 9739 9737 9737 9736 9736 9735 9735 9735 9735 9734 9734 9734 9735 9735 9736 9736 9737 9737 9737
10109 10100 10091 10082 10071 10060 10049 10038 10028 10018 10009 9999 9989 9980 9970 9960 9950 9942 9934 9927 9921 9915 9909 9903 9896 9887 9878 9872 9869 9865 9859 9852 9846 9840 9834 9829 9824 9818 9814 9809 9804 9799 9795 9791 9787 9783 9780 9776 9772 9769 9766 9763 9760 9757 9755 9752 9750 9747 9745 9743 9741 9740 9738 9737 9735 9734 9732 9731 9730 9729 9728 9728 9727 9727 9726 9726 9725 9725 9725 9725 9725 9726 9726 9727 9727 9727